Time,TemperatureF,DewpointF,PressureIn,WindDirection,WindDirectionDegrees,WindSpeedMPH,WindSpeedGustMPH,Humidity,HourlyPrecipIn,Conditions,Clouds,dailyrainin,SoftwareType,DateUTC
2013-04-30 00:02:00,58.0,55.0,29.95,West,271,0.0,0.0,90,0.00,,,0.56,,2013-04-30 04:02:00,
2013-04-30 00:12:00,58.0,55.0,29.95,West,271,0.0,0.0,90,0.00,,,0.56,,2013-04-30 04:12:00,
2013-04-30 00:22:00,57.0,54.0,29.95,West,271,0.0,0.0,90,0.00,,,0.56,,2013-04-30 04:22:00,
2013-04-30 00:32:00,58.0,55.0,29.94,West,271,0.0,0.0,90,0.00,,,0.47,,2013-04-30 04:32:00,
2013-04-30 00:42:00,58.0,55.0,29.94,West,271,0.0,0.0,90,0.00,,,0.47,,2013-04-30 04:42:00,
2013-04-30 00:52:00,58.0,55.0,29.94,West,271,0.0,0.0,90,0.00,,,0.47,,2013-04-30 04:52:00,
2013-04-30 01:02:00,58.0,55.0,29.94,West,271,0.0,0.0,90,0.00,,,0.47,,2013-04-30 05:02:00,
2013-04-30 01:12:00,58.0,55.0,29.94,West,271,0.0,0.0,90,0.00,,,0.47,,2013-04-30 05:12:00,
2013-04-30 01:22:00,58.0,55.0,29.94,West,271,0.0,0.0,90,0.00,,,0.47,,2013-04-30 05:22:00,
2013-04-30 01:31:00,58.0,55.0,29.95,West,271,0.0,0.0,90,0.00,,,0.43,,2013-04-30 05:31:00,
2013-04-30 01:42:00,58.0,55.0,29.95,West,271,0.0,0.0,90,0.00,,,0.43,,2013-04-30 05:42:00,
2013-04-30 01:51:00,58.0,55.0,29.94,West,271,0.0,0.0,90,0.00,,,0.43,,2013-04-30 05:51:00,
2013-04-30 02:02:00,58.0,55.0,29.94,West,271,0.0,0.0,90,0.00,,,0.43,,2013-04-30 06:02:00,
2013-04-30 02:12:00,58.0,55.0,29.94,West,271,0.0,0.0,90,0.00,,,0.43,,2013-04-30 06:12:00,
2013-04-30 02:21:00,58.0,55.0,29.94,West,271,0.0,0.0,90,0.00,,,0.43,,2013-04-30 06:21:00,
2013-04-30 02:32:00,57.0,54.0,29.94,West,271,0.0,0.0,90,0.00,,,0.39,,2013-04-30 06:32:00,
2013-04-30 02:41:00,57.0,54.0,29.94,West,271,0.0,0.0,90,0.00,,,0.39,,2013-04-30 06:41:00,
2013-04-30 02:52:00,57.0,54.0,29.93,West,271,0.0,0.0,90,0.00,,,0.39,,2013-04-30 06:52:00,
2013-04-30 03:02:00,57.0,54.0,29.93,West,271,0.0,1.0,90,0.00,,,0.39,,2013-04-30 07:02:00,
2013-04-30 03:11:00,57.0,54.0,29.93,West,271,0.0,1.0,90,0.00,,,0.39,,2013-04-30 07:11:00,
2013-04-30 03:21:00,57.0,54.0,29.93,West,271,0.0,0.0,90,0.00,,,0.39,,2013-04-30 07:21:00,
2013-04-30 03:32:00,57.0,54.0,29.93,West,271,0.0,0.0,90,0.00,,,0.32,,2013-04-30 07:32:00,
2013-04-30 03:42:00,57.0,54.0,29.93,West,271,0.0,0.0,90,0.00,,,0.32,,2013-04-30 07:42:00,
2013-04-30 03:52:00,57.0,54.0,29.93,West,271,0.0,0.0,90,0.00,,,0.32,,2013-04-30 07:52:00,
2013-04-30 04:02:00,56.0,53.0,29.93,West,271,0.0,0.0,90,0.00,,,0.32,,2013-04-30 08:02:00,
2013-04-30 04:11:00,56.0,53.0,29.93,West,271,0.0,0.0,90,0.00,,,0.32,,2013-04-30 08:11:00,
2013-04-30 04:22:00,56.0,53.0,29.94,West,271,0.0,0.0,90,0.00,,,0.32,,2013-04-30 08:22:00,
2013-04-30 04:32:00,56.0,53.0,29.94,West,271,0.0,0.0,90,0.00,,,0.19,,2013-04-30 08:32:00,
2013-04-30 04:42:00,56.0,53.0,29.94,West,271,0.0,0.0,90,0.00,,,0.19,,2013-04-30 08:42:00,
2013-04-30 04:52:00,56.0,53.0,29.95,West,271,0.0,0.0,90,0.00,,,0.19,,2013-04-30 08:52:00,
2013-04-30 05:02:00,57.0,54.0,29.95,West,271,0.0,0.0,91,0.00,,,0.19,,2013-04-30 09:02:00,
2013-04-30 05:11:00,57.0,54.0,29.95,West,271,0.0,0.0,91,0.00,,,0.19,,2013-04-30 09:11:00,
2013-04-30 05:22:00,57.0,54.0,29.95,West,271,0.0,0.0,90,0.00,,,0.19,,2013-04-30 09:22:00,
2013-04-30 05:33:00,57.0,54.0,29.95,West,271,0.0,1.0,90,0.00,,,0.10,,2013-04-30 09:33:00,
2013-04-30 05:43:00,57.0,54.0,29.95,West,271,0.0,1.0,90,0.00,,,0.10,,2013-04-30 09:43:00,
2013-04-30 05:52:00,57.0,54.0,29.96,West,271,0.0,1.0,91,0.00,,,0.10,,2013-04-30 09:52:00,
2013-04-30 06:03:00,57.0,54.0,29.97,West,271,0.0,1.0,91,0.00,,,0.10,,2013-04-30 10:03:00,
2013-04-30 06:12:00,57.0,54.0,29.97,West,271,0.0,1.0,91,0.00,,,0.10,,2013-04-30 10:12:00,
2013-04-30 06:22:00,57.0,54.0,29.98,West,271,0.0,0.0,91,0.00,,,0.10,,2013-04-30 10:22:00,
2013-04-30 06:32:00,57.0,54.0,29.98,West,271,0.0,1.0,91,0.00,,,0.05,,2013-04-30 10:32:00,
2013-04-30 06:41:00,57.0,54.0,29.98,West,271,0.0,1.0,91,0.00,,,0.05,,2013-04-30 10:41:00,
2013-04-30 06:52:00,57.0,54.0,29.99,West,271,0.0,0.0,91,0.00,,,0.05,,2013-04-30 10:52:00,
2013-04-30 07:02:00,57.0,54.0,30.00,West,271,0.0,1.0,91,0.00,,,0.05,,2013-04-30 11:02:00,
2013-04-30 07:11:00,57.0,54.0,30.00,West,271,0.0,1.0,91,0.00,,,0.05,,2013-04-30 11:11:00,
2013-04-30 07:21:00,57.0,54.0,30.00,West,271,0.0,0.0,91,0.00,,,0.05,,2013-04-30 11:21:00,
2013-04-30 07:32:00,57.0,54.0,30.01,West,271,0.0,1.0,91,0.00,,,0.02,,2013-04-30 11:32:00,
2013-04-30 07:42:00,57.0,54.0,30.01,West,271,0.0,1.0,91,0.00,,,0.02,,2013-04-30 11:42:00,
2013-04-30 07:51:00,57.0,54.0,30.02,SSE,161,0.0,2.0,91,0.00,,,0.02,,2013-04-30 11:51:00,
2013-04-30 08:01:00,57.0,54.0,30.02,SSE,161,0.0,0.0,91,0.00,,,0.02,,2013-04-30 12:01:00,
2013-04-30 08:11:00,57.0,54.0,30.02,SSE,161,0.0,0.0,91,0.00,,,0.02,,2013-04-30 12:11:00,
2013-04-30 08:22:00,57.0,54.0,30.03,SSE,161,0.0,1.0,91,0.00,,,0.02,,2013-04-30 12:22:00,
2013-04-30 08:31:00,57.0,54.0,30.03,SSE,161,0.0,1.0,91,0.00,,,0.00,,2013-04-30 12:31:00,
2013-04-30 08:41:00,57.0,54.0,30.03,SSE,161,0.0,1.0,91,0.00,,,0.00,,2013-04-30 12:41:00,
2013-04-30 08:51:00,57.0,54.0,30.04,SSE,161,0.0,1.0,91,0.00,,,0.00,,2013-04-30 12:51:00,
2013-04-30 09:01:00,57.0,54.0,30.04,SSE,161,0.0,1.0,91,0.00,,,0.00,,2013-04-30 13:01:00,
2013-04-30 09:11:00,57.0,54.0,30.04,SSE,161,0.0,1.0,91,0.00,,,0.00,,2013-04-30 13:11:00,
2013-04-30 09:21:00,57.0,54.0,30.04,SSE,161,0.0,0.0,91,0.00,,,0.00,,2013-04-30 13:21:00,
2013-04-30 09:31:00,57.0,54.0,30.04,SSE,161,0.0,2.0,91,0.00,,,0.00,,2013-04-30 13:31:00,
2013-04-30 09:41:00,57.0,54.0,30.04,SSE,161,0.0,2.0,91,0.00,,,0.00,,2013-04-30 13:41:00,
2013-04-30 09:52:00,57.0,54.0,30.05,SSE,161,0.0,1.0,91,0.00,,,0.00,,2013-04-30 13:52:00,
2013-04-30 10:02:00,57.0,54.0,30.05,SSE,161,0.0,2.0,91,0.00,,,0.00,,2013-04-30 14:02:00,
2013-04-30 10:11:00,57.0,54.0,30.05,SSE,161,0.0,2.0,91,0.00,,,0.00,,2013-04-30 14:11:00,
2013-04-30 10:21:00,57.0,54.0,30.05,SSE,162,0.0,1.0,91,0.00,,,0.00,,2013-04-30 14:21:00,
2013-04-30 10:31:00,57.0,54.0,30.05,SSE,162,0.0,1.0,91,0.00,,,0.00,,2013-04-30 14:31:00,
2013-04-30 10:41:00,57.0,54.0,30.05,SSE,162,0.0,1.0,91,0.00,,,0.00,,2013-04-30 14:41:00,
2013-04-30 10:52:00,57.0,54.0,30.06,SSE,162,0.0,2.0,91,0.00,,,0.00,,2013-04-30 14:52:00,
2013-04-30 11:01:00,57.0,54.0,30.06,SSE,161,0.0,3.0,91,0.00,,,0.00,,2013-04-30 15:01:00,
2013-04-30 11:11:00,57.0,54.0,30.06,SSE,161,0.0,3.0,91,0.00,,,0.00,,2013-04-30 15:11:00,
2013-04-30 11:21:00,58.0,55.0,30.06,SSE,165,0.0,1.0,91,0.00,,,0.00,,2013-04-30 15:21:00,
2013-04-30 11:32:00,58.0,55.0,30.06,SSE,165,0.0,1.0,90,0.00,,,0.00,,2013-04-30 15:32:00,
2013-04-30 11:42:00,58.0,55.0,30.06,SSE,165,0.0,1.0,90,0.00,,,0.00,,2013-04-30 15:42:00,
2013-04-30 11:53:00,58.0,55.0,30.06,NE,44,0.0,2.0,90,0.00,,,0.00,,2013-04-30 15:53:00,
2013-04-30 12:02:00,58.0,54.0,30.06,East,92,0.0,2.0,88,0.00,,,0.00,,2013-04-30 16:02:00,
2013-04-30 12:12:00,58.0,54.0,30.06,East,92,0.0,2.0,88,0.00,,,0.00,,2013-04-30 16:12:00,
2013-04-30 12:23:00,59.0,55.0,30.05,East,101,0.0,2.0,88,0.00,,,0.00,,2013-04-30 16:23:00,
2013-04-30 12:33:00,59.0,55.0,30.05,ESE,102,0.0,2.0,86,0.00,,,0.00,,2013-04-30 16:33:00,
2013-04-30 12:42:00,59.0,55.0,30.05,ESE,102,0.0,2.0,86,0.00,,,0.00,,2013-04-30 16:42:00,
2013-04-30 12:52:00,60.0,55.0,30.05,SE,146,0.0,3.0,84,0.00,,,0.00,,2013-04-30 16:52:00,
2013-04-30 13:02:00,60.0,55.0,30.05,SE,146,0.0,1.0,85,0.00,,,0.00,,2013-04-30 17:02:00,
2013-04-30 13:12:00,60.0,55.0,30.05,SE,146,0.0,1.0,85,0.00,,,0.00,,2013-04-30 17:12:00,
2013-04-30 13:22:00,61.0,56.0,30.04,SE,146,0.0,2.0,83,0.00,,,0.00,,2013-04-30 17:22:00,
2013-04-30 13:32:00,61.0,55.0,30.04,SE,146,0.0,2.0,82,0.00,,,0.00,,2013-04-30 17:32:00,
2013-04-30 13:42:00,61.0,55.0,30.04,SE,146,0.0,2.0,82,0.00,,,0.00,,2013-04-30 17:42:00,
2013-04-30 13:53:00,62.0,56.0,30.04,SSW,203,0.0,2.0,80,0.00,,,0.00,,2013-04-30 17:53:00,
2013-04-30 14:01:00,62.0,56.0,30.04,West,265,0.0,1.0,81,0.00,,,0.00,,2013-04-30 18:01:00,
2013-04-30 14:11:00,62.0,56.0,30.04,West,265,0.0,1.0,81,0.00,,,0.00,,2013-04-30 18:11:00,
2013-04-30 14:22:00,62.0,56.0,30.04,West,265,0.0,1.0,80,0.00,,,0.00,,2013-04-30 18:22:00,
2013-04-30 14:32:00,62.0,56.0,30.04,West,265,0.0,2.0,80,0.00,,,0.00,,2013-04-30 18:32:00,
2013-04-30 14:42:00,62.0,56.0,30.04,West,265,0.0,2.0,80,0.00,,,0.00,,2013-04-30 18:42:00,
2013-04-30 14:52:00,63.0,56.0,30.03,West,265,0.0,2.0,79,0.00,,,0.00,,2013-04-30 18:52:00,
2013-04-30 15:01:00,63.0,56.0,30.03,West,265,0.0,1.0,77,0.00,,,0.00,,2013-04-30 19:01:00,
2013-04-30 15:11:00,63.0,56.0,30.03,West,265,0.0,1.0,77,0.00,,,0.00,,2013-04-30 19:11:00,
2013-04-30 15:22:00,63.0,55.0,30.04,West,265,0.0,1.0,76,0.00,,,0.00,,2013-04-30 19:22:00,
2013-04-30 15:32:00,63.0,56.0,30.04,West,265,0.0,2.0,78,0.00,,,0.00,,2013-04-30 19:32:00,
2013-04-30 15:42:00,63.0,56.0,30.04,West,265,0.0,2.0,78,0.00,,,0.00,,2013-04-30 19:42:00,
2013-04-30 15:52:00,63.0,55.0,30.04,West,265,0.0,1.0,76,0.00,,,0.00,,2013-04-30 19:52:00,
2013-04-30 16:02:00,63.0,55.0,30.03,South,174,0.0,2.0,76,0.00,,,0.00,,2013-04-30 20:02:00,
2013-04-30 16:11:00,63.0,55.0,30.03,South,174,0.0,2.0,76,0.00,,,0.00,,2013-04-30 20:11:00,
2013-04-30 16:22:00,63.0,55.0,30.03,South,174,0.0,3.0,76,0.00,,,0.00,,2013-04-30 20:22:00,
2013-04-30 16:32:00,63.0,55.0,30.03,South,174,0.0,1.0,76,0.00,,,0.00,,2013-04-30 20:32:00,
2013-04-30 16:42:00,63.0,55.0,30.03,South,174,0.0,1.0,76,0.00,,,0.00,,2013-04-30 20:42:00,
2013-04-30 16:52:00,64.0,56.0,30.03,SW,224,0.0,1.0,75,0.00,,,0.00,,2013-04-30 20:52:00,
2013-04-30 17:02:00,64.0,56.0,30.04,SW,224,0.0,1.0,76,0.00,,,0.00,,2013-04-30 21:02:00,
2013-04-30 17:11:00,64.0,56.0,30.04,SW,224,0.0,1.0,76,0.00,,,0.00,,2013-04-30 21:11:00,
2013-04-30 17:22:00,63.0,56.0,30.04,West,267,0.0,3.0,77,0.00,,,0.00,,2013-04-30 21:22:00,
2013-04-30 17:32:00,63.0,56.0,30.05,West,267,0.0,2.0,77,0.00,,,0.00,,2013-04-30 21:32:00,
2013-04-30 17:42:00,63.0,56.0,30.05,West,267,0.0,2.0,77,0.00,,,0.00,,2013-04-30 21:42:00,
2013-04-30 17:53:00,63.0,56.0,30.05,SSW,200,0.0,2.0,77,0.00,,,0.00,,2013-04-30 21:53:00,
2013-04-30 18:02:00,62.0,55.0,30.05,SSW,200,0.0,0.0,78,0.00,,,0.00,,2013-04-30 22:02:00,
2013-04-30 18:12:00,62.0,55.0,30.05,SSW,200,0.0,0.0,78,0.00,,,0.00,,2013-04-30 22:12:00,
2013-04-30 18:23:00,62.0,55.0,30.06,West,272,0.0,1.0,79,0.00,,,0.00,,2013-04-30 22:23:00,
2013-04-30 18:33:00,62.0,55.0,30.06,South,181,0.0,2.0,79,0.00,,,0.00,,2013-04-30 22:33:00,
2013-04-30 18:42:00,62.0,55.0,30.06,South,181,0.0,2.0,79,0.00,,,0.00,,2013-04-30 22:42:00,
2013-04-30 18:53:00,62.0,55.0,30.06,West,275,0.0,2.0,79,0.00,,,0.00,,2013-04-30 22:53:00,
2013-04-30 19:02:00,61.0,54.0,30.07,West,275,0.0,0.0,79,0.00,,,0.00,,2013-04-30 23:02:00,
2013-04-30 19:12:00,61.0,54.0,30.07,West,275,0.0,0.0,79,0.00,,,0.00,,2013-04-30 23:12:00,
2013-04-30 19:22:00,61.0,54.0,30.07,West,275,0.0,0.0,79,0.00,,,0.00,,2013-04-30 23:22:00,
2013-04-30 19:32:00,61.0,54.0,30.07,West,275,0.0,1.0,78,0.00,,,0.00,,2013-04-30 23:32:00,
2013-04-30 19:42:00,61.0,54.0,30.07,West,275,0.0,1.0,78,0.00,,,0.00,,2013-04-30 23:42:00,
2013-04-30 19:52:00,61.0,54.0,30.08,West,275,0.0,2.0,79,0.00,,,0.00,,2013-04-30 23:52:00,
2013-04-30 20:02:00,61.0,54.0,30.08,West,275,0.0,1.0,78,0.00,,,0.00,,2013-05-01 00:02:00,
2013-04-30 20:11:00,61.0,54.0,30.08,West,275,0.0,1.0,78,0.00,,,0.00,,2013-05-01 00:11:00,
2013-04-30 20:22:00,60.0,53.0,30.08,West,275,0.0,0.0,79,0.00,,,0.00,,2013-05-01 00:22:00,
2013-04-30 20:32:00,59.0,53.0,30.08,West,275,0.0,0.0,81,0.00,,,0.00,,2013-05-01 00:32:00,
2013-04-30 20:42:00,59.0,53.0,30.08,West,275,0.0,0.0,81,0.00,,,0.00,,2013-05-01 00:42:00,
2013-04-30 20:52:00,58.0,53.0,30.09,West,275,0.0,0.0,84,0.00,,,0.00,,2013-05-01 00:52:00,
2013-04-30 21:01:00,57.0,53.0,30.09,West,275,0.0,0.0,85,0.00,,,0.00,,2013-05-01 01:01:00,
2013-04-30 21:11:00,57.0,53.0,30.09,West,275,0.0,0.0,85,0.00,,,0.00,,2013-05-01 01:11:00,
2013-04-30 21:21:00,57.0,53.0,30.09,West,275,0.0,0.0,86,0.00,,,0.00,,2013-05-01 01:21:00,
2013-04-30 21:32:00,56.0,52.0,30.09,West,275,0.0,0.0,87,0.00,,,0.00,,2013-05-01 01:32:00,
2013-04-30 21:42:00,56.0,52.0,30.09,West,275,0.0,0.0,87,0.00,,,0.00,,2013-05-01 01:42:00,
2013-04-30 21:52:00,56.0,52.0,30.10,West,275,0.0,0.0,87,0.00,,,0.00,,2013-05-01 01:52:00,
2013-04-30 22:02:00,56.0,52.0,30.11,West,275,0.0,0.0,87,0.00,,,0.00,,2013-05-01 02:02:00,
2013-04-30 22:11:00,56.0,52.0,30.11,West,275,0.0,0.0,87,0.00,,,0.00,,2013-05-01 02:11:00,
2013-04-30 22:21:00,56.0,52.0,30.10,West,275,0.0,0.0,87,0.00,,,0.00,,2013-05-01 02:21:00,
2013-04-30 22:32:00,56.0,52.0,30.10,West,275,0.0,0.0,87,0.00,,,0.00,,2013-05-01 02:32:00,
2013-04-30 22:42:00,56.0,52.0,30.10,West,275,0.0,0.0,87,0.00,,,0.00,,2013-05-01 02:42:00,
2013-04-30 22:52:00,55.0,51.0,30.11,West,275,0.0,0.0,87,0.00,,,0.00,,2013-05-01 02:52:00,
2013-04-30 23:02:00,55.0,51.0,30.10,West,275,0.0,0.0,87,0.00,,,0.00,,2013-05-01 03:02:00,
2013-04-30 23:11:00,55.0,51.0,30.10,West,275,0.0,0.0,87,0.00,,,0.00,,2013-05-01 03:11:00,
2013-04-30 23:21:00,55.0,52.0,30.10,West,275,0.0,0.0,88,0.00,,,0.00,,2013-05-01 03:21:00,
2013-04-30 23:33:00,55.0,52.0,30.10,West,275,0.0,0.0,88,0.00,,,0.00,,2013-05-01 03:33:00,
2013-04-30 23:53:00,56.0,52.0,30.10,West,275,0.0,1.0,87,0.00,,,0.00,,2013-05-01 03:53:00,